TimeEDT,TemperatureF,Dew PointF,Humidity,Sea Level PressureIn,VisibilityMPH,Wind Direction,Wind SpeedMPH,Gust SpeedMPH,PrecipitationIn,Events,Conditions,WindDirDegrees,DateUTC
12:51 AM,73.0,68.0,84,30.06,10.0,SSE,5.8,-,N/A,,Overcast,160,2013-08-08 04:51:00
1:51 AM,73.0,69.1,87,30.05,10.0,SSE,6.9,-,0.01,Rain,Rain,160,2013-08-08 05:51:00
1:58 AM,73.4,69.8,88,30.05,8.0,South,4.6,-,0.01,Rain,Light Rain,170,2013-08-08 05:58:00
2:18 AM,71.6,69.8,94,30.05,10.0,South,8.1,-,0.01,Rain,Light Rain,180,2013-08-08 06:18:00
2:51 AM,70.0,66.9,90,30.05,10.0,South,10.4,-,0.05,Rain,Light Rain,180,2013-08-08 06:51:00
3:51 AM,71.1,68.0,90,30.04,10.0,South,6.9,-,0.01,Rain,Light Rain,180,2013-08-08 07:51:00
4:18 AM,71.6,69.8,94,30.04,10.0,SSE,3.5,-,0.00,,Mostly Cloudy,160,2013-08-08 08:18:00
4:51 AM,71.1,68.0,90,30.04,10.0,South,4.6,-,0.00,,Overcast,170,2013-08-08 08:51:00
5:51 AM,72.0,69.1,91,30.04,10.0,SSW,4.6,-,N/A,,Overcast,210,2013-08-08 09:51:00
6:51 AM,73.0,70.0,90,30.05,10.0,South,6.9,-,N/A,,Overcast,180,2013-08-08 10:51:00
7:51 AM,73.0,70.0,90,30.05,10.0,South,4.6,-,N/A,,Overcast,180,2013-08-08 11:51:00
8:51 AM,73.9,70.0,87,30.06,9.0,South,5.8,-,N/A,,Overcast,180,2013-08-08 12:51:00
9:51 AM,75.0,71.1,87,30.06,9.0,South,4.6,-,N/A,,Overcast,190,2013-08-08 13:51:00
10:51 AM,78.1,72.0,81,30.05,9.0,Variable,4.6,-,N/A,,Overcast,0,2013-08-08 14:51:00
11:12 AM,78.8,71.6,78,30.04,10.0,Variable,4.6,-,N/A,,Mostly Cloudy,0,2013-08-08 15:12:00
11:22 AM,78.8,71.6,78,30.04,10.0,WSW,6.9,-,N/A,,Overcast,250,2013-08-08 15:22:00
11:51 AM,81.0,71.1,72,30.04,10.0,WSW,12.7,-,N/A,,Overcast,250,2013-08-08 15:51:00
12:43 PM,82.4,71.6,70,30.03,10.0,SW,8.1,-,N/A,,Overcast,230,2013-08-08 16:43:00
12:51 PM,80.1,71.1,74,30.03,10.0,Variable,5.8,-,N/A,,Overcast,0,2013-08-08 16:51:00
1:03 PM,80.6,71.6,74,30.03,10.0,SE,3.5,-,N/A,,Overcast,140,2013-08-08 17:03:00
1:51 PM,82.9,70.0,65,30.03,10.0,South,5.8,-,N/A,,Overcast,170,2013-08-08 17:51:00
2:35 PM,78.8,73.4,83,30.03,8.0,SE,9.2,-,0.00,Rain,Light Rain,130,2013-08-08 18:35:00
2:51 PM,79.0,73.0,82,30.03,10.0,ESE,10.4,-,0.00,Rain,Light Rain,120,2013-08-08 18:51:00
3:07 PM,77.0,73.4,89,30.03,8.0,ESE,8.1,16.1,0.00,Rain,Light Rain,120,2013-08-08 19:07:00
3:46 PM,75.2,73.4,94,30.03,6.0,ESE,8.1,-,0.02,Rain,Light Rain,120,2013-08-08 19:46:00
3:51 PM,75.9,73.0,91,30.03,6.0,ESE,8.1,-,0.02,Rain,Light Rain,110,2013-08-08 19:51:00
4:51 PM,77.0,72.0,84,30.02,9.0,ESE,8.1,-,0.00,,Mostly Cloudy,110,2013-08-08 20:51:00
5:05 PM,75.2,71.6,89,30.02,9.0,SE,11.5,18.4,0.00,Rain,Light Rain,140,2013-08-08 21:05:00
5:29 PM,73.4,71.6,94,30.03,1.5,SSE,10.4,18.4,0.04,Rain,Heavy Rain,160,2013-08-08 21:29:00
5:40 PM,73.4,71.6,94,30.04,1.5,SE,13.8,-,0.27,Rain,Heavy Rain,130,2013-08-08 21:40:00
5:47 PM,71.6,69.8,94,30.03,3.0,ESE,9.2,21.9,0.45,Rain,Heavy Rain,120,2013-08-08 21:47:00
5:51 PM,73.0,71.1,93,30.03,3.0,ESE,6.9,16.1,0.47,Rain-Thunderstorm,Thunderstorms and Rain,120,2013-08-08 21:51:00
5:59 PM,73.4,71.6,94,30.04,2.5,SSE,9.2,-,0.03,Rain-Thunderstorm,Heavy Thunderstorms and Rain,160,2013-08-08 21:59:00
6:02 PM,73.4,71.6,94,30.03,4.0,ESE,11.5,-,0.08,Rain-Thunderstorm,Heavy Thunderstorms and Rain,110,2013-08-08 22:02:00
6:09 PM,73.4,71.6,94,30.01,6.0,ESE,8.1,-,0.10,Rain,Light Rain,110,2013-08-08 22:09:00
6:51 PM,75.0,72.0,90,30.01,9.0,SSE,5.8,-,0.10,,Overcast,150,2013-08-08 22:51:00
7:07 PM,75.2,71.6,89,30.01,9.0,SSW,3.5,-,N/A,Thunderstorm,Thunderstorm,200,2013-08-08 23:07:00
7:48 PM,75.2,73.4,94,30.01,9.0,Calm,Calm,-,0.02,,Overcast,0,2013-08-08 23:48:00
7:51 PM,75.9,73.0,91,30.01,8.0,Calm,Calm,-,0.02,,Overcast,0,2013-08-08 23:51:00
8:51 PM,75.9,73.0,91,30.01,9.0,Calm,Calm,-,0.00,,Mostly Cloudy,0,2013-08-09 00:51:00
9:51 PM,75.9,71.1,85,30.02,10.0,South,8.1,-,N/A,,Mostly Cloudy,190,2013-08-09 01:51:00
10:51 PM,75.0,70.0,84,30.03,10.0,South,10.4,-,N/A,,Mostly Cloudy,190,2013-08-09 02:51:00
11:51 PM,75.0,71.1,87,30.02,10.0,South,9.2,-,N/A,,Mostly Cloudy,190,2013-08-09 03:51:00